Regional Weather Roundup
Issued by NWS

Home | Current Version | Previous Version | Text Only | Print | Product List | Glossary On
Versions: 1 2 3 4 5 6 7 8 9 10 11 12 13 14 15 16 17 18 19 20 21 22 23 24 25 26 27 28 29 30 31 32 33 34 35 36 37 38 39 40 41 42 43 44 45 46 47 48 49 50
000
ASUS43 KTOP 041908
RWRKS

WEATHER ROUNDUP FOR KANSAS
NATIONAL WEATHER SERVICE GOODLAND KS
100 PM CST SUN DEC 04 2016

NOTE:  "FAIR" INDICATES FEW OR NO CLOUDS BELOW 12,000 FEET WITH NO
SIGNIFICANT WEATHER AND/OR OBSTRUCTIONS TO VISIBILITY.

KSZ001>006-013>018-027>032-041>047-042000-
NORTHWEST KANSAS

CITY           SKY/WX    TMP DP  RH WIND       PRES   REMARKS
GOODLAND       SUNNY     47  10  22 VRB5      29.97F
HAYS           SUNNY     46  31  55 W9        30.00F
HILL CITY      SUNNY     50  25  37 NW7       29.99F
RUSSELL        SUNNY     45  29  53 NW9       29.99F
$$

KSZ061>065-074>080-084>089-042000-
SOUTHWEST KANSAS

CITY           SKY/WX    TMP DP  RH WIND       PRES   REMARKS
DODGE CITY     SUNNY     48  27  44 NW13      30.04F
ELKHART          N/A     46  20  35 N3          N/A
GARDEN CITY    SUNNY     47  22  37 N12       30.02F
GREAT BEND     SUNNY     47  31  53 W10       30.01F
LIBERAL        SUNNY     46  30  53 NW7       30.07F
PRATT          SUNNY     46  30  52 NW12      30.02F
$$

KSZ066>073-081>083-090>101-042000-
SOUTHEAST KANSAS

CITY           SKY/WX    TMP DP  RH WIND       PRES   REMARKS
CHANUTE        CLOUDY    46  38  73 W6        30.02R
COFFEYVILLE    CLOUDY    46  39  76 NW8       30.03F
HUTCHINSON     SUNNY     48  35  60 W7        30.01F
MEDICINE LODGE   N/A     52  30  43 NW6       30.02F
NEWTON         SUNNY     44  38  79 NW9       30.01F
PARSONS        CLOUDY    46  38  73 NW8       30.04R
WICHITA INTL   MOSUNNY   47  38  71 W7        30.02F
WICHITA JABRA  SUNNY     45  38  76 W7        30.02F
WICHITA MCCONL SUNNY     45  37  73 NW8       30.02S
WINFIELD       CLOUDY    45  40  82 W9        30.05S
$$

KSZ007>012-019>026-033>040-048>060-102>105-042000-
NORTHEAST KANSAS

CITY           SKY/WX    TMP DP  RH WIND       PRES   REMARKS
CONCORDIA      SUNNY     41  35  79 W7        29.98F
EMPORIA        CLOUDY    39  36  89 NW9       30.00F
LAWRENCE       CLOUDY    42  38  85 W14       29.99F
MANHATTAN      CLOUDY    37  34  89 W6        30.01F
MARYSVILLE     PTSUNNY   41  36  81 SW9       29.97F
OLATHE IND     CLOUDY    42  38  85 W12       29.97F
OLATHE EXE     CLOUDY    42  37  82 NW7       29.97F
SALINA         SUNNY     47  37  68 NW9       30.00F
TOPEKA BILLARD CLOUDY    38  35  89 W9        29.99F
TOPEKA FORBES  CLOUDY    40  36  86 W10       29.99F WCI  33
$$




USA.gov is the U.S. government's official web portal to all federal, state and local government web resources and services.